AO-07 1 07530U 74089B 25353.91699593 -.00000038 00000-0 55462-4 0 9990 2 07530 101.9963 0.2601 0012385 113.0850 308.4213 12.53694382338055 UO-11 1 14781U 84021B 25354.17971414 .00001176 00000-0 12709-3 0 9996 2 14781 97.7821 317.0929 0009101 61.4487 298.7646 14.90164255230463 AO-27 1 22825U 93061C 25354.13118060 .00000092 00000-0 52053-4 0 9997 2 22825 98.7136 56.4158 0007321 264.8450 95.1897 14.30879255681396 FO-29 1 24278U 96046B 25354.16671329 -.00000028 00000-0 77014-5 0 9997 2 24278 98.5458 222.3051 0349483 200.6828 157.9868 13.53262945448950 GO-32 1 25397U 98043D 25353.94205529 .00000046 00000-0 40104-4 0 9997 2 25397 98.9926 337.3205 0001832 45.9373 314.1956 14.24378966425818 ISS 1 25544U 98067A 25354.21533065 .00006989 00000-0 13177-3 0 9998 2 25544 51.6321 105.4589 0003199 275.1086 84.9538 15.49679666544013 NO-44 1 26931U 01043C 25354.14032425 .00000112 00000-0 72918-4 0 9994 2 26931 67.0515 347.3398 0007419 269.5030 90.5222 14.31858652264814 SO-50 1 27607U 02058C 25354.22622647 .00001471 00000-0 19340-3 0 9990 2 27607 64.5532 322.4593 0072556 295.1671 64.1922 14.82419820237929 CO-55 1 27844U 03031E 25354.24784514 .00000277 00000-0 13915-3 0 9994 2 27844 98.6762 0.0540 0009386 351.8021 8.3003 14.24185337166207 CO-57 1 27848U 03031J 25354.00714157 .00000221 00000-0 11643-3 0 9993 2 27848 98.6790 359.6726 0009639 10.5697 349.5682 14.23492293165887 RS-22 1 27939U 03042A 25354.32924948 .00000559 00000-0 95351-4 0 9995 2 27939 98.3359 168.7304 0012348 113.3677 6.0281 14.72988333189210 CO-58 1 28895U 05043F 25353.85140235 .00001218 00000-0 20242-3 0 9995 2 28895 98.2729 141.0496 0015167 57.1012 303.1651 14.71924223 75367 CO-65 1 32785U 08021C 25351.68477250 .00005656 00000-0 38073-3 0 9997 2 32785 97.8081 324.8433 0007829 290.5969 69.4418 15.07103756957832 CO-66 1 32791U 08021J 25353.46349815 .00012670 00000-0 50331-3 0 9992 2 32791 97.7441 338.8410 0002130 175.3833 184.7424 15.25467941959826 RS-30 1 32953U 08025A 25354.27555995 .00000030 00000-0 14513-3 0 9993 2 32953 82.5028 106.7364 0018733 344.3499 15.7000 12.43172174797462 SRMSAT 1 37841U 11058D 25354.22426193 .00000391 00000-0 68548-4 0 9994 2 37841 19.9724 62.6529 0011942 35.7334 353.2285 14.11513872732507 ZACUBE-1 1 39417U 13066B 25351.39749824 .00003280 00000-0 27002-3 0 9999 2 39417 97.8056 307.9496 0042001 132.1904 228.2897 14.99124350653477 Delfi-N3xt 1 39428U 13066N 25354.18620421 .00005588 00000-0 52392-3 0 9995 2 39428 97.8356 270.0421 0081093 81.2458 279.7935 14.91920096647900 GOMX-1 1 39430U 13066Q 25354.26002012 .00001544 00000-0 24209-3 0 9991 2 39430 97.6582 200.9149 0129200 292.2977 66.4573 14.68618146643644 LO-74 1 39440U 13066AA 25351.56788106 .00003439 00000-0 33426-3 0 9993 2 39440 97.8708 295.2332 0058016 269.4523 90.0047 14.92015584649893 AO-73 1 39444U 13066AE 25353.89718991 .00005414 00000-0 36826-3 0 9992 2 39444 97.8076 317.2636 0041167 92.5233 268.0707 15.06065869652643 DTUSAT-2 1 40030U 14033W 25351.70002679 .00007073 00000-0 41774-3 0 9998 2 40030 98.0754 333.4459 0009697 125.2587 234.9550 15.11812878625232 EO-80 1 40032U 14033Y 25353.89442867 .00006246 00000-0 36826-3 0 9992 2 40032 98.0641 335.1472 0009762 69.7896 290.4382 15.11928982625549 LILACSAT-2 1 40908U 15049K 25354.31475543 .00010890 00000-0 23313-3 0 9994 2 40908 97.4899 19.9308 0008055 168.9438 191.1989 15.44937470568074 IO-86 1 40931U 15052B 25151.18580175 .00001241 00000-0 78118-4 0 9996 2 40931 6.0006 24.0987 0012733 338.8432 21.1169 14.78805930523159 Horyu-4 1 41340U 16012D 25354.01968620 .00034530 00000-0 56476-3 0 9999 2 41340 30.9939 259.9732 0006825 304.4738 55.5266 15.51230224542683 Lapan A3 1 41603U 16040E 25354.27358065 .00002759 00000-0 92724-4 0 9991 2 41603 97.1424 351.5558 0008959 303.2976 56.7407 15.31608118527418 CAS-2T 1 41847U 16066G 25354.17497034 .00000790 00000-0 12170-3 0 9997 2 41847 98.4030 66.8431 0342772 312.5799 44.6930 14.44147170478951 TechnoSat 1 42829U 17042E 25354.18269796 .00002604 00000-0 19480-3 0 9993 2 42829 97.4053 154.0688 0017791 350.3356 9.7526 15.03467294459791 AO-91 1 43017U 17073E 25354.13825460 .00006760 00000-0 32051-3 0 9994 2 43017 97.4936 220.1669 0159393 224.8218 134.0047 15.09005085438353 S-Net D 1 43186U 18014G 25354.22045398 .00004682 00000-0 25825-3 0 9993 2 43186 97.5494 255.2485 0006930 282.5261 77.5196 15.14435826431650 S-Net B 1 43187U 18014H 25354.22862981 .00004309 00000-0 23814-3 0 9991 2 43187 97.5500 255.2371 0007499 276.5109 83.5269 15.14411397431653 S-Net A 1 43188U 18014J 25354.22013074 .00004699 00000-0 25914-3 0 9998 2 43188 97.5508 255.4063 0007410 277.1412 82.8977 15.14442328431655 S-Net C 1 43189U 18014K 25354.23161837 .00004185 00000-0 23139-3 0 9998 2 43189 97.5526 255.4643 0008777 268.0326 91.9901 15.14406409430208 Ten-Koh 1 43677U 18084G 25354.04050107 .00002111 00000-0 16666-3 0 9997 2 43677 98.0745 173.9566 0008975 4.9915 355.1396 15.01860592389263 PO-101 1 43678U 18084H 25354.25951417 .00001945 00000-0 16380-3 0 9992 2 43678 98.1022 178.0243 0007627 27.6757 332.4870 14.99473008389397 QO-100 1 43700U 18090A 25354.10253131 .00000168 00000-0 00000-0 0 9992 2 43700 0.0122 48.0623 0000974 242.1069 221.4822 1.00272122 25889 MinXSS-2 1 43758U 18099A 25354.18817808 .00017285 00000-0 51228-3 0 9998 2 43758 97.4793 61.6558 0009486 184.0807 176.0360 15.34873749386566 AO-95 1 43770U 18099N 25354.15650998 .00007795 00000-0 34369-3 0 9996 2 43770 97.4667 50.3845 0008230 255.7032 104.3290 15.22040526385949 SNUSat 2 1 43782U 18099AA 25354.10586059 .00006292 00000-0 30882-3 0 9997 2 43782 97.4341 45.3862 0010655 194.9181 165.1740 15.18394206385821 SnugLite 1 43784U 18099AC 25354.07602156 .00007975 00000-0 34774-3 0 9995 2 43784 97.4155 45.4303 0002925 172.6922 187.4358 15.22435724386025 ITASat 1 1 43786U 18099AE 25354.15589214 .00005545 00000-0 29022-3 0 9996 2 43786 97.4314 44.3129 0011929 254.6415 105.3500 15.16173434385757 EAGLET 1 1 43790U 18099AJ 25354.12110534 .00002725 00000-0 16598-3 0 9994 2 43790 97.4512 43.4690 0010108 240.4819 119.5404 15.11178512385278 ESEO 1 43792U 18099AL 25354.00262383 .00002142 00000-0 16112-3 0 9998 2 43792 97.4223 33.8893 0011543 221.2124 138.8232 15.03509494384873 JO-97 1 43803U 18099AX 25354.15516301 .00010368 00000-0 39295-3 0 9995 2 43803 97.4411 51.9483 0006475 174.2396 185.8919 15.27060885386246 Suomi 100 1 43804U 18099AY 25354.14364145 .00007825 00000-0 33049-3 0 9997 2 43804 97.4476 50.5471 0010831 184.7658 175.3478 15.23479607386110 ISAT 1 43879U 18111D 25354.00448214 .00027929 00000-0 64852-3 0 9992 2 43879 97.5919 273.9958 0004070 209.3790 150.7229 15.42328366383366 UWE-4 1 43880U 18111E 25353.21927691 .00017452 00000-0 52029-3 0 9990 2 43880 97.5865 269.9239 0007271 246.6380 113.4098 15.34706356383078 Sparrow 1 43881U 18111F 25353.26562205 .00033768 00000-0 72522-3 0 9990 2 43881 97.6103 277.0215 0001923 289.5361 70.5679 15.44623778383370 Prox-1 1 44339U 19036A 25354.03083144 .00009161 00000-0 10086-2 0 9998 2 44339 23.9949 226.4753 0006528 123.2474 236.8651 14.85360402346753 Taurus 1 1 44530U 19059C 25354.26271697 .00004671 00000-0 80063-3 0 9997 2 44530 98.6225 143.5308 0009183 151.5914 208.5792 14.69258456332349 TO-108 1 44881U 19093C 25354.24158145 .00001392 00000-0 16475-3 0 9997 2 44881 97.7759 65.7059 0012739 320.8537 39.1757 14.86121796324830 FloripaSat 1 1 44885U 19093G 25354.24189929 .00005335 00000-0 41836-3 0 9995 2 44885 97.8044 82.4713 0009675 310.7424 49.2959 15.01358628325777 RS-44 1 44909U 19096E 25354.20678853 .00000019 00000-0 31702-4 0 9996 2 44909 82.5215 98.6473 0217314 202.5924 156.5499 12.79746140279457 SALSAT 1 46495U 20068K 25353.48061531 .00006196 00000-0 24069-3 0 9996 2 46495 97.8779 341.1169 0009485 202.4725 157.6098 15.26432785287916 CSS (TIANHE-1) 1 48274U 21035A 25354.20808758 .00018311 00000-0 22776-3 0 9994 2 48274 41.4685 331.3573 0007746 96.7908 263.3812 15.59496428265194 TUBIN 1 48900U 21059X 25349.78845228 .07315651 27141-5 56139-3 0 9990 2 48900 97.6553 178.8839 0007270 265.1302 94.9166 16.40417761249824 CUTE 1 49263U 21088D 25354.22138948 .00020639 00000-0 26633-3 0 9992 2 49263 97.4347 77.4078 0004539 235.9095 124.1731 15.59008185234467 TeikyoSat 4 1 49396U 21102B 25354.03063087 .00001755 00000-0 11573-3 0 9991 2 49396 97.3889 25.3562 0012119 181.9813 178.1370 15.08675341225708 Z-Sat 1 49399U 21102E 25354.29943488 .00002527 00000-0 13261-3 0 9998 2 49399 97.3574 30.0153 0018015 146.5827 213.6548 15.16501623226314 KOSEN 1 1 49402U 21102H 25354.05858459 .00005712 00000-0 23985-3 0 9993 2 49402 97.3458 34.7965 0016174 117.5633 242.7250 15.23722698226711 HO-113 1 50466U 21131B 25354.28749933 .00000461 00000-0 15668-3 0 9993 2 50466 98.5057 82.6715 0003059 277.1016 82.9825 14.41121625209346 SNUGLITE 2 1 52899U 22065F 25354.18442719 .00000877 00000-0 17704-3 0 9997 2 52899 98.1932 134.6754 0006799 218.9992 141.0720 14.63854938184805 UmKA 1 (RS40S) 1 57172U 23091G 25354.18986305 .00004457 00000-0 22042-3 0 9999 2 57172 97.5332 48.6226 0014160 29.2087 330.9936 15.18261351136827 CubeBel-2 (EU11S) 1 57175U 23091K 25354.20556909 .00008819 00000-0 36409-3 0 9996 2 57175 97.5331 51.1927 0011543 32.2212 327.9728 15.24209781136991 RS-38S 1 57189U 23091Z 25354.29516793 .00010372 00000-0 36412-3 0 9998 2 57189 97.5358 55.7983 0008090 357.1034 3.0158 15.29575356137282 SONATE-2 1 59112U 24043Q 25353.90565057 .00019572 00000-0 40976-3 0 9999 2 59112 97.5336 130.4261 0009281 137.0224 223.1751 15.45441926100080 MO-122 1 60209U 24125G 25354.10019320 .00021710 00000-0 43416-3 0 9998 2 60209 97.2515 204.4793 0014751 151.1631 209.0437 15.46683716 81745 GRBBeta 1 60237U 24128C 25353.79506788 .00003630 00000-0 26211-3 0 9990 2 60237 61.9900 124.8722 0056025 97.9638 262.7817 15.04823292 79253 Curium One 1 60242U 24128H 25353.81991921 .00007213 00000-0 45127-3 0 9994 2 60242 61.9784 119.4945 0055322 94.5416 266.2000 15.09016459 79350 ROBUSTA-3A 1 60243U 24128J 25353.82648194 .00006149 00000-0 39408-3 0 9999 2 60243 61.9867 121.0358 0055840 92.2570 268.4918 15.08321567 79339 CatSat 1 60246U 24125J 25354.14333024 .00024888 00000-0 59115-3 0 9995 2 60246 97.2301 201.4502 0034386 118.0602 242.4129 15.41038953 79669 HYPERVIEW-1G (RS66S) 1 61772U 24199AP 25354.24052369 .00031858 00000-0 60028-3 0 9992 2 61772 97.3202 223.7723 0008321 203.3321 156.7553 15.48415799106778 AO-123 1 61781U 24199AY 25354.24919770 .00007734 00000-0 25141-3 0 9993 2 61781 97.3244 219.6174 0013090 225.4264 134.5910 15.32099301106498 ZIMSAT 2 1 61783U 24199BA 25353.53009689 .00207553 00000-0 12962-2 0 9992 2 61783 97.3076 226.8459 0004892 157.8032 202.3446 15.76266785110077 HADES-R (SO-124) 1 62690U 25009CK 25353.50180803 .00139512 00000-0 16338-2 0 9996 2 62690 97.3864 76.3943 0001150 263.7674 96.3452 15.61075237 51839 HYDRA-T 1 62692U 25009CM 25354.17548695 .00149370 00000-0 15897-2 0 9991 2 62692 97.3868 77.3228 0001929 284.6487 75.4557 15.63518112 51953 JINJUSat 1B 1 63210U 25052A 25353.14274451 .00012621 00000-0 48019-3 0 9999 2 63210 97.4208 245.2587 0004952 30.9085 329.2445 15.26887237 42567 NUSHSAT 1 1 63211U 25052B 25353.46103451 .00014371 00000-0 52846-3 0 9993 2 63211 97.4189 245.7058 0005015 33.7049 326.4508 15.27983213 42624 TEVEL2-4 1 63213U 25052D 25353.66143486 .00012588 00000-0 47301-3 0 9997 2 63213 97.4108 245.4430 0004702 48.0549 312.1091 15.27299696 42640 TEVEL2-5 1 63214U 25052E 25353.66723739 .00012195 00000-0 45943-3 0 9997 2 63214 97.4106 245.4353 0004690 48.6434 311.5207 15.27223416 42647 TEVEL2-6 1 63215U 25052F 25353.67475926 .00011743 00000-0 44316-3 0 9992 2 63215 97.4107 245.4309 0004776 47.9549 312.2096 15.27175954 42641 TEVEL2-1 1 63217U 25052H 25354.11215029 .00011868 00000-0 45219-3 0 9991 2 63217 97.4081 245.6701 0005140 55.7172 304.4553 15.26853986 42702 TEVEL2-3 1 63218U 25052J 25354.17677809 .00011888 00000-0 45259-3 0 9992 2 63218 97.4083 245.7401 0005163 55.8382 304.3346 15.26878860 42710 TEVEL2-2 1 63219U 25052K 25353.19539921 .00013194 00000-0 50263-3 0 9999 2 63219 97.4084 244.7608 0005156 58.0109 302.1631 15.26832185 42560 TEVEL2-9 1 63237U 25052AD 25354.14882884 .00010414 00000-0 41525-3 0 9997 2 63237 97.4144 245.4027 0009125 61.6273 298.5884 15.25344883 42674 TEVEL2-7 1 63238U 25052AE 25354.22909262 .00010873 00000-0 43537-3 0 9991 2 63238 97.4149 245.4555 0009252 61.3787 298.8381 15.25192240 42688 TEVEL2-8 1 63239U 25052AF 25354.16924755 .00010985 00000-0 44018-3 0 9998 2 63239 97.4147 245.3801 0009227 61.7894 298.4274 15.25164734 42678 HYDRA-W 1 63490U 25052BL 25354.23001479 .00051402 00000-0 11852-2 0 9992 2 63490 97.4063 248.1226 0011210 52.4538 307.7726 15.42347597 42870 HADES-ICM (SO-125) 1 63492U 25052BN 25351.96064983 .00050303 00000-0 12519-2 0 9990 2 63492 97.4082 245.5345 0011625 61.2981 298.9432 15.40039410 42501 Dragonfly 1 65729U 98067XH 25353.59934995 .00144123 00000-0 96899-3 0 9999 2 65729 51.6251 100.5779 0007280 320.5398 39.5070 15.74182800 14248 RSP-03 1 65732U 98067XL 25353.42469933 .00106087 00000-0 84699-3 0 9992 2 65732 51.6265 102.4221 0005658 294.5755 65.4652 15.70283101 14217 GHS-01 1 65733U 98067XM 25353.72697634 .00188446 00000-0 10728-2 0 9997 2 65733 51.6273 99.1864 0008343 325.0318 35.0134 15.77819432 14285 BOTAN 1 65942U 98067XP 25354.19570992 .00085410 00000-0 87028-3 0 9993 2 65942 51.6284 101.5830 0002952 302.2200 57.8508 15.64374422 11035 BEE-1000 1 66650U 25274A 25353.52753957 .00000973 00000-0 10224-3 0 9995 2 66650 97.7401 280.5907 0010694 226.1332 133.9004 14.91682536 3416 SPIRONE 1 66657U 25274H 25354.11914393 .00001460 00000-0 14764-3 0 9996 2 66657 97.7400 281.1980 0010782 248.1257 111.8816 14.92492654 3505 K-HERO 1 66660U 25274L 25353.37393786 .00001653 00000-0 16428-3 0 9997 2 66660 97.7404 280.4848 0012565 256.3531 103.6289 14.92997006 3396 SNUGLITE-III DURI 1 66661U 25274M 25353.84083554 .00001328 00000-0 13260-3 0 9999 2 66661 97.7405 280.9485 0013209 255.8970 104.0781 14.93132875 3463 SilverSat 1 66909U 98067XV 25353.55080352 .00049748 00000-0 79912-3 0 9999 2 66909 51.6306 108.5226 0003839 268.6960 91.3590 15.52516520 2671 CEVROSAT1 1 98526U 25248E 25313.13142326 .00000000 00000-0 19360-3 0 02 2 98526 45.4084 218.4764 0001315 254.8982 242.1062 15.17981583 02